sat.trackr.live / text

‹ back to catalog

ONEWEB-0033

NORAD 45142 · 2020-008M

PAYLOAD ACTIVE UNKNOWN

§ Identity

Operator
Country
UK
Launch date
2020-02-06
Launch site
TYMSC
Launch vehicle
Mass (kg)
RCS (m²)

Purposes: comms

External: N2YO · Heavens-Above · Gunter

§ Orbital elements

Epoch: 2026-09-20T00:59:09.293856Z

Period
109.89 min
Inclination
87.8902°
Eccentricity
0.0001313
Mean motion
13.10372566 rev/d
Perigee alt
1,220.7 km
Apogee alt
1,222.7 km
Semi-major
7,599.9 km
B*
-1.9216e-3
RAAN
17.3903°
Arg perigee
90.4193°
Mean anomaly
269.7085°
Rev number
32,063

§ Raw data

ONEWEB-00331 45142U 20008M   26263.04107979 -.00000658  00000+0 -19216-2 0  99932 45142  87.8902  17.3903 0001313  90.4193 269.7085 13.10372566320634

JSON: /api/v1/satellites/45142 · /tle

For live sub-satellite position, see the globe view (requires WebGL).

§ Visibility from observer

Set your observer location to see the next 7 days of passes ≥ 10°. The values pass through the URL so the page stays shareable.

No JS? Fill the form by hand. The geolocation button needs JavaScript.